Torna al catalogo

STARLINK-5590

AttivoComunicazioniVLEO
NORAD 55371·PAYLOAD·🇺🇸 United States

Lanciato Jan 26, 2023 da Cape Canaveral Space Force Station

Loading…

Prossimi Passaggi (prossime 24 ore)

TLE

AggiornatoSource: CelesTrak SupGP

Epoca: Sep 14, 2026, 22:14 UTC

1 55371C 23013AS  26257.92687500 -.00035406  00000+0 -12823-2 0  2573
2 55371  43.0010 332.5063 0001545 269.3959 257.8262 15.27598210    14

Traccia STARLINK-5590 in tempo reale con AllMySat

Download on the App Store